| time (UTC) | temp F | wind direction | speed MPH | gust MPH | rain 1hr in | rain 24hr in | rain mn in | humidity % | barometer mb |
| 20260506005649 | 56 | 112 | 0.0 | 3.0 | 0.13 | 0.17 | 0.17 | 93 | 1010.9 |
| 20260506004738 | 56 | 112 | 0.0 | 3.0 | 0.13 | 0.17 | 0.17 | 93 | 1010.9 |
| 20260506004652 | 56 | 112 | 0.0 | 3.0 | 0.13 | 0.17 | 0.17 | 93 | 1010.9 |
| 20260506003655 | 56 | 328 | 3.0 | 8.0 | 0.08 | 0.12 | 0.12 | 92 | 1010.9 |
| 20260506002650 | 58 | 334 | 1.0 | 3.0 | 0.01 | 0.05 | 0.05 | 93 | 1010.8 |
| 20260506001809 | 58 | 334 | 1.0 | 3.0 | 0.01 | 0.05 | 0.05 | 93 | 1010.8 |
| 20260506001648 | 58 | 334 | 1.0 | 3.0 | 0.01 | 0.05 | 0.05 | 93 | 1010.8 |
| 20260506000648 | 58 | 73 | 2.0 | 5.0 | 0.00 | 0.04 | 0.04 | 92 | 1010.3 |
| 20260505235814 | 59 | 27 | 1.0 | 4.0 | 0.00 | 0.04 | 0.04 | 92 | 1010.0 |
| 20260505235649 | 59 | 27 | 1.0 | 4.0 | 0.00 | 0.04 | 0.04 | 92 | 1010.0 |
| 20260505234651 | 59 | 27 | 1.0 | 4.0 | 0.00 | 0.04 | 0.04 | 92 | 1010.0 |
| 20260505233746 | 60 | 5 | 1.0 | 4.0 | 0.00 | 0.04 | 0.04 | 92 | 1010.0 |
| 20260505233648 | 60 | 5 | 1.0 | 4.0 | 0.00 | 0.04 | 0.04 | 92 | 1010.0 |
| 20260505232727 | 61 | 269 | 0.0 | 2.0 | 0.00 | 0.04 | 0.04 | 92 | 1010.0 |
| 20260505232650 | 61 | 269 | 0.0 | 2.0 | 0.00 | 0.04 | 0.04 | 92 | 1010.0 |
| 20260505231648 | 61 | 269 | 0.0 | 2.0 | 0.00 | 0.04 | 0.04 | 92 | 1010.0 |
| 20260505230650 | 61 | 269 | 0.0 | 1.0 | 0.00 | 0.04 | 0.04 | 92 | 1009.9 |
| 20260505225733 | 61 | 269 | 0.0 | 1.0 | 0.00 | 0.04 | 0.04 | 91 | 1010.4 |
| 20260505225648 | 61 | 269 | 0.0 | 1.0 | 0.00 | 0.04 | 0.04 | 91 | 1010.4 |
| 20260505224841 | 61 | 269 | 0.0 | 1.0 | 0.00 | 0.04 | 0.04 | 91 | 1010.4 |
| 20260505224649 | 61 | 269 | 0.0 | 1.0 | 0.00 | 0.04 | 0.04 | 91 | 1010.4 |
| 20260505223648 | 61 | 269 | 0.0 | 2.0 | 0.00 | 0.04 | 0.04 | 91 | 1010.4 |
| 20260505222648 | 61 | 269 | 0.0 | 2.0 | 0.00 | 0.04 | 0.04 | 91 | 1010.5 |
| 20260505221648 | 61 | 269 | 0.0 | 2.0 | 0.00 | 0.04 | 0.04 | 91 | 1010.5 |
| 20260505220652 | 61 | 269 | 1.0 | 2.0 | 0.01 | 0.04 | 0.04 | 91 | 1010.3 |
| 20260505215649 | 61 | 269 | 1.0 | 2.0 | 0.03 | 0.04 | 0.04 | 90 | 1010.2 |
| 20260505214705 | 61 | 269 | 1.0 | 2.0 | 0.03 | 0.04 | 0.04 | 90 | 1010.2 |
| 20260505213650 | 61 | 269 | 0.0 | 2.0 | 0.03 | 0.04 | 0.04 | 89 | 1010.3 |
| 20260505212652 | 61 | 272 | 2.0 | 4.0 | 0.03 | 0.04 | 0.04 | 86 | 1010.3 |
| 20260505211649 | 61 | 272 | 2.0 | 4.0 | 0.03 | 0.04 | 0.04 | 86 | 1010.3 |
| 20260505210648 | 65 | 280 | 2.0 | 7.0 | 0.02 | 0.03 | 0.03 | 76 | 1010.5 |
| 20260505205648 | 67 | 274 | 1.0 | 3.0 | 0.00 | 0.01 | 0.01 | 69 | 1010.0 |
| 20260505204657 | 67 | 274 | 1.0 | 3.0 | 0.00 | 0.01 | 0.01 | 69 | 1010.0 |
| 20260505203650 | 68 | 271 | 2.0 | 4.0 | 0.00 | 0.01 | 0.01 | 64 | 1009.9 |
| 20260505202648 | 68 | 273 | 2.0 | 6.0 | 0.00 | 0.01 | 0.01 | 63 | 1009.9 |
| 20260505201649 | 68 | 273 | 2.0 | 6.0 | 0.00 | 0.01 | 0.01 | 63 | 1009.9 |
| 20260505200648 | 69 | 272 | 2.0 | 6.0 | 0.00 | 0.01 | 0.01 | 63 | 1009.9 |
| 20260505195655 | 68 | 269 | 3.0 | 8.0 | 0.00 | 0.01 | 0.01 | 63 | 1010.2 |
| 20260505194648 | 68 | 269 | 3.0 | 8.0 | 0.00 | 0.01 | 0.01 | 63 | 1010.2 |
| 20260505193650 | 68 | 270 | 2.0 | 6.0 | 0.00 | 0.01 | 0.01 | 63 | 1010.6 |
| 20260505192654 | 68 | 262 | 3.0 | 11.0 | 0.00 | 0.01 | 0.01 | 62 | 1010.6 |
| 20260505191647 | 68 | 262 | 3.0 | 11.0 | 0.00 | 0.01 | 0.01 | 62 | 1010.6 |
| 20260505190655 | 68 | 269 | 4.0 | 11.0 | 0.00 | 0.01 | 0.01 | 61 | 1010.7 |
| 20260505185652 | 70 | 260 | 4.0 | 10.0 | 0.00 | 0.01 | 0.01 | 59 | 1010.6 |
| 20260505185006 | 70 | 260 | 4.0 | 10.0 | 0.00 | 0.01 | 0.01 | 59 | 1010.6 |
| 20260505184651 | 70 | 260 | 4.0 | 10.0 | 0.00 | 0.01 | 0.01 | 59 | 1010.6 |
| 20260505183654 | 70 | 254 | 4.0 | 10.0 | 0.00 | 0.01 | 0.01 | 59 | 1010.4 |
| 20260505182647 | 70 | 243 | 5.0 | 12.0 | 0.00 | 0.01 | 0.01 | 59 | 1010.3 |
| 20260505181647 | 70 | 243 | 5.0 | 12.0 | 0.00 | 0.01 | 0.01 | 59 | 1010.3 |
| 20260505180650 | 71 | 248 | 4.0 | 10.0 | 0.00 | 0.01 | 0.01 | 58 | 1010.2 |
| 20260505175648 | 69 | 254 | 3.0 | 11.0 | 0.00 | 0.01 | 0.01 | 61 | 1010.2 |
| 20260505174648 | 69 | 254 | 3.0 | 11.0 | 0.00 | 0.01 | 0.01 | 61 | 1010.2 |
| 20260505173648 | 69 | 259 | 3.0 | 8.0 | 0.00 | 0.01 | 0.01 | 60 | 1010.2 |
| 20260505172650 | 70 | 260 | 4.0 | 11.0 | 0.00 | 0.01 | 0.01 | 60 | 1010.1 |
| 20260505171647 | 70 | 260 | 4.0 | 11.0 | 0.00 | 0.01 | 0.01 | 60 | 1010.1 |
| 20260505170648 | 71 | 238 | 4.0 | 10.0 | 0.00 | 0.01 | 0.01 | 58 | 1010.3 |
| 20260505165740 | 71 | 245 | 4.0 | 10.0 | 0.00 | 0.01 | 0.01 | 59 | 1010.2 |
| 20260505165648 | 71 | 245 | 4.0 | 10.0 | 0.00 | 0.01 | 0.01 | 59 | 1010.2 |
| 20260505164650 | 71 | 245 | 4.0 | 10.0 | 0.00 | 0.01 | 0.01 | 59 | 1010.2 |
| 20260505163650 | 71 | 255 | 4.0 | 12.0 | 0.00 | 0.01 | 0.01 | 58 | 1010.3 |
| 20260505162651 | 70 | 263 | 2.0 | 6.0 | 0.00 | 0.01 | 0.01 | 62 | 1009.9 |
| 20260505161649 | 70 | 263 | 2.0 | 6.0 | 0.00 | 0.01 | 0.01 | 62 | 1009.9 |
| 20260505160648 | 70 | 251 | 5.0 | 11.0 | 0.00 | 0.01 | 0.01 | 62 | 1010.1 |
| 20260505152726 | 68 | 257 | 5.0 | 9.0 | 0.00 | 0.01 | 0.01 | 68 | 1010.4 |
| 20260505152647 | 68 | 257 | 5.0 | 9.0 | 0.00 | 0.01 | 0.01 | 68 | 1010.4 |
| 20260505151653 | 68 | 257 | 5.0 | 9.0 | 0.00 | 0.01 | 0.01 | 68 | 1010.4 |
| 20260505150648 | 66 | 245 | 7.0 | 15.0 | 0.00 | 0.01 | 0.01 | 70 | 1010.0 |
| 20260505140648 | 62 | 230 | 5.0 | 9.0 | 0.01 | 0.01 | 0.01 | 78 | 1009.9 |
| 20260505124843 | 63 | 235 | 3.0 | 6.0 | 0.00 | 0.00 | 0.00 | 72 | 1009.7 |
| 20260505124649 | 63 | 235 | 3.0 | 6.0 | 0.00 | 0.00 | 0.00 | 72 | 1009.7 |
| 20260505123648 | 63 | 239 | 4.0 | 8.0 | 0.00 | 0.00 | 0.00 | 71 | 1009.8 |
| 20260505122648 | 63 | 236 | 4.0 | 7.0 | 0.00 | 0.00 | 0.00 | 70 | 1009.6 |
| 20260505121647 | 63 | 236 | 4.0 | 7.0 | 0.00 | 0.00 | 0.00 | 70 | 1009.6 |
| 20260505120653 | 63 | 233 | 4.0 | 7.0 | 0.00 | 0.00 | 0.00 | 71 | 1009.5 |
| 20260505115647 | 62 | 231 | 4.0 | 8.0 | 0.00 | 0.00 | 0.00 | 71 | 1009.5 |
| 20260505114647 | 62 | 231 | 4.0 | 8.0 | 0.00 | 0.00 | 0.00 | 71 | 1009.5 |
| 20260505113650 | 62 | 234 | 4.0 | 6.0 | 0.00 | 0.00 | 0.00 | 71 | 1009.5 |
| 20260505112816 | 62 | 239 | 4.0 | 8.0 | 0.00 | 0.00 | 0.00 | 70 | 1009.3 |
| 20260505112649 | 62 | 239 | 4.0 | 8.0 | 0.00 | 0.00 | 0.00 | 70 | 1009.3 |
| 20260505111752 | 62 | 239 | 4.0 | 8.0 | 0.00 | 0.00 | 0.00 | 70 | 1009.3 |
| 20260505111649 | 62 | 239 | 4.0 | 8.0 | 0.00 | 0.00 | 0.00 | 70 | 1009.3 |
| 20260505110648 | 63 | 237 | 5.0 | 10.0 | 0.00 | 0.00 | 0.00 | 70 | 1009.3 |
| 20260505101648 | 63 | 243 | 4.0 | 8.0 | 0.00 | 0.00 | 0.00 | 69 | 1008.5 |
| 20260505100655 | 63 | 240 | 5.0 | 8.0 | 0.00 | 0.00 | 0.00 | 69 | 1008.5 |
| 20260505095807 | 64 | 241 | 4.0 | 8.0 | 0.00 | 0.00 | 0.00 | 67 | 1008.5 |
| 20260505095648 | 64 | 241 | 4.0 | 8.0 | 0.00 | 0.00 | 0.00 | 67 | 1008.5 |
| 20260505094855 | 64 | 241 | 4.0 | 8.0 | 0.00 | 0.00 | 0.00 | 67 | 1008.5 |
| 20260505094652 | 64 | 241 | 4.0 | 8.0 | 0.00 | 0.00 | 0.00 | 67 | 1008.5 |
| 20260505093652 | 64 | 245 | 4.0 | 9.0 | 0.00 | 0.00 | 0.00 | 67 | 1008.2 |
| 20260505092723 | 65 | 245 | 5.0 | 11.0 | 0.00 | 0.00 | 0.00 | 66 | 1008.1 |
| 20260505092648 | 65 | 245 | 5.0 | 11.0 | 0.00 | 0.00 | 0.00 | 66 | 1008.1 |
| 20260505091719 | 65 | 245 | 5.0 | 11.0 | 0.00 | 0.00 | 0.00 | 66 | 1008.1 |
| 20260505091647 | 65 | 245 | 5.0 | 11.0 | 0.00 | 0.00 | 0.00 | 66 | 1008.1 |
| 20260505090648 | 65 | 244 | 5.0 | 10.0 | 0.00 | 0.00 | 0.00 | 66 | 1008.0 |
| 20260505085656 | 65 | 233 | 7.0 | 18.0 | 0.00 | 0.00 | 0.00 | 66 | 1007.9 |
| 20260505084651 | 65 | 233 | 7.0 | 18.0 | 0.00 | 0.00 | 0.00 | 66 | 1007.9 |
| 20260505083652 | 64 | 240 | 5.0 | 11.0 | 0.00 | 0.00 | 0.00 | 68 | 1007.8 |
| 20260505082655 | 64 | 234 | 5.0 | 11.0 | 0.00 | 0.00 | 0.00 | 68 | 1007.5 |
| 20260505081653 | 64 | 234 | 5.0 | 11.0 | 0.00 | 0.00 | 0.00 | 68 | 1007.5 |
| 20260505080648 | 63 | 227 | 5.0 | 9.0 | 0.00 | 0.00 | 0.00 | 69 | 1007.3 |
| 20260505075648 | 63 | 238 | 4.0 | 7.0 | 0.00 | 0.00 | 0.00 | 69 | 1007.5 |
| 20260505074739 | 63 | 238 | 4.0 | 7.0 | 0.00 | 0.00 | 0.00 | 69 | 1007.5 |
| 20260505074650 | 63 | 238 | 4.0 | 7.0 | 0.00 | 0.00 | 0.00 | 69 | 1007.5 |
| 20260505073737 | 63 | 227 | 5.0 | 10.0 | 0.00 | 0.00 | 0.00 | 69 | 1007.3 |
| 20260505073649 | 63 | 227 | 5.0 | 10.0 | 0.00 | 0.00 | 0.00 | 69 | 1007.3 |
| 20260505072648 | 64 | 229 | 5.0 | 8.0 | 0.00 | 0.00 | 0.00 | 69 | 1007.3 |
| 20260505071650 | 64 | 229 | 5.0 | 8.0 | 0.00 | 0.00 | 0.00 | 69 | 1007.3 |
| 20260505070652 | 64 | 229 | 5.0 | 8.0 | 0.00 | 0.00 | 0.00 | 68 | 1007.4 |
| 20260505065726 | 64 | 234 | 5.0 | 10.0 | 0.00 | 0.00 | 0.00 | 68 | 1007.3 |
| 20260505065649 | 64 | 234 | 5.0 | 10.0 | 0.00 | 0.00 | 0.00 | 68 | 1007.3 |
| 20260505064648 | 64 | 234 | 5.0 | 10.0 | 0.00 | 0.00 | 0.00 | 68 | 1007.3 |
| 20260505063739 | 64 | 236 | 5.0 | 10.0 | 0.00 | 0.00 | 0.00 | 67 | 1007.5 |
| 20260505063649 | 64 | 236 | 5.0 | 10.0 | 0.00 | 0.00 | 0.00 | 67 | 1007.5 |
| 20260505062727 | 65 | 237 | 5.0 | 10.0 | 0.00 | 0.00 | 0.00 | 67 | 1007.6 |
| 20260505062654 | 65 | 237 | 5.0 | 10.0 | 0.00 | 0.00 | 0.00 | 67 | 1007.6 |
| 20260505061649 | 65 | 237 | 5.0 | 10.0 | 0.00 | 0.00 | 0.00 | 67 | 1007.6 |
| 20260505060649 | 65 | 235 | 5.0 | 11.0 | 0.00 | 0.00 | 0.00 | 67 | 1008.0 |
| 20260505055721 | 65 | 238 | 5.0 | 9.0 | 0.00 | 0.00 | 0.00 | 66 | 1008.3 |
| 20260505055649 | 65 | 238 | 5.0 | 9.0 | 0.00 | 0.00 | 0.00 | 66 | 1008.3 |
| 20260505054724 | 65 | 238 | 5.0 | 9.0 | 0.00 | 0.00 | 0.00 | 66 | 1008.3 |
| 20260505054650 | 65 | 238 | 5.0 | 9.0 | 0.00 | 0.00 | 0.00 | 66 | 1008.3 |
| 20260505053723 | 65 | 234 | 5.0 | 10.0 | 0.00 | 0.00 | 0.00 | 66 | 1008.3 |
| 20260505053650 | 65 | 234 | 5.0 | 10.0 | 0.00 | 0.00 | 0.00 | 66 | 1008.3 |
| 20260505052650 | 64 | 232 | 4.0 | 9.0 | 0.00 | 0.00 | 0.00 | 68 | 1008.5 |
| 20260505051649 | 64 | 232 | 4.0 | 9.0 | 0.00 | 0.00 | 0.00 | 68 | 1008.5 |
| 20260505050649 | 64 | 232 | 5.0 | 11.0 | 0.00 | 0.00 | 0.00 | 69 | 1008.6 |
| 20260505041651 | 64 | 234 | 5.0 | 7.0 | 0.00 | 0.00 | 0.00 | 67 | 1008.6 |
| 20260505040649 | 64 | 232 | 5.0 | 9.0 | 0.00 | 0.00 | 0.00 | 67 | 1008.7 |
| 20260505035651 | 64 | 230 | 5.0 | 8.0 | 0.00 | 0.00 | 0.00 | 66 | 1008.7 |
| 20260505034648 | 64 | 230 | 5.0 | 8.0 | 0.00 | 0.00 | 0.00 | 66 | 1008.7 |
| 20260505033649 | 64 | 229 | 5.0 | 10.0 | 0.00 | 0.00 | 0.00 | 65 | 1008.7 |
| 20260505032649 | 64 | 224 | 5.0 | 8.0 | 0.00 | 0.00 | 0.00 | 65 | 1008.6 |
| 20260505031648 | 64 | 224 | 5.0 | 8.0 | 0.00 | 0.00 | 0.00 | 65 | 1008.6 |
| 20260505030730 | 64 | 227 | 4.0 | 6.0 | 0.00 | 0.00 | 0.00 | 64 | 1008.9 |
| 20260505030655 | 64 | 227 | 4.0 | 6.0 | 0.00 | 0.00 | 0.00 | 64 | 1008.9 |
| 20260505025648 | 64 | 227 | 4.0 | 8.0 | 0.00 | 0.00 | 0.00 | 63 | 1009.0 |
| 20260505024648 | 64 | 227 | 4.0 | 8.0 | 0.00 | 0.00 | 0.00 | 63 | 1009.0 |
| 20260505023648 | 65 | 230 | 3.0 | 5.0 | 0.00 | 0.00 | 0.00 | 63 | 1009.0 |
| 20260505022739 | 65 | 229 | 3.0 | 6.0 | 0.00 | 0.00 | 0.00 | 62 | 1009.0 |
| 20260505022654 | 65 | 229 | 3.0 | 6.0 | 0.00 | 0.00 | 0.00 | 62 | 1009.0 |
| 20260505021651 | 65 | 229 | 3.0 | 6.0 | 0.00 | 0.00 | 0.00 | 62 | 1009.0 |
| 20260505020649 | 66 | 240 | 4.0 | 8.0 | 0.00 | 0.00 | 0.00 | 61 | 1009.1 |
| 20260505015649 | 66 | 239 | 5.0 | 10.0 | 0.00 | 0.00 | 0.00 | 59 | 1009.1 |
| 20260505014652 | 66 | 239 | 5.0 | 10.0 | 0.00 | 0.00 | 0.00 | 59 | 1009.1 |
| 20260505013649 | 67 | 241 | 5.0 | 9.0 | 0.00 | 0.00 | 0.00 | 59 | 1009.1 |
| 20260505012649 | 67 | 243 | 4.0 | 8.0 | 0.00 | 0.00 | 0.00 | 59 | 1008.5 |
| 20260505011651 | 67 | 243 | 4.0 | 8.0 | 0.00 | 0.00 | 0.00 | 59 | 1008.5 |
| 20260505010650 | 67 | 239 | 4.0 | 9.0 | 0.00 | 0.00 | 0.00 | 58 | 1008.4 |